| time (UTC) | temp F | wind direction | speed MPH | gust MPH | rain 1hr in | rain 24hr in | rain mn in | humidity % | barometer mb |
| 20260506121538 | 53 | 266 | 7.0 | 14.0 | 0.01 | 0.01 | 0.01 | 83 | 1003.5 |
| 20260506120037 | 54 | 283 | 9.0 | 14.0 | 0.00 | 0.00 | 0.00 | 76 | 1003.4 |
| 20260506114535 | 55 | 255 | 2.0 | 14.0 | 0.00 | 0.00 | 0.00 | 71 | 1003.4 |
| 20260506113035 | 55 | 301 | 1.0 | 14.0 | 0.00 | 0.00 | 0.00 | 74 | 1003.6 |
| 20260506111532 | 54 | 252 | 2.0 | 14.0 | 0.00 | 0.00 | 0.00 | 72 | 1003.8 |
| 20260506110031 | 55 | 237 | 3.0 | 14.0 | 0.00 | 0.00 | 0.00 | 71 | 1003.8 |
| 20260506104531 | 55 | 253 | 6.0 | 14.0 | 0.00 | 0.00 | 0.00 | 67 | 1003.9 |
| 20260506103037 | 56 | 273 | 4.0 | 14.0 | 0.00 | 0.00 | 0.00 | 65 | 1004.0 |
| 20260506101530 | 56 | 138 | 1.0 | 13.0 | 0.00 | 0.00 | 0.00 | 63 | 1004.2 |
| 20260506100034 | 55 | 33 | 2.0 | 13.0 | 0.00 | 0.00 | 0.00 | 65 | 1004.3 |
| 20260506094534 | 55 | 187 | 1.0 | 13.0 | 0.00 | 0.00 | 0.00 | 66 | 1004.4 |
| 20260506093028 | 55 | 245 | 5.0 | 13.0 | 0.00 | 0.00 | 0.00 | 65 | 1004.3 |
| 20260506091526 | 54 | 301 | 2.0 | 13.0 | 0.00 | 0.00 | 0.00 | 66 | 1004.4 |
| 20260506090021 | 53 | 277 | 4.0 | 13.0 | 0.00 | 0.00 | 0.00 | 68 | 1004.6 |
| 20260506084522 | 52 | 274 | 1.0 | 13.0 | 0.00 | 0.00 | 0.00 | 72 | 1004.5 |
| 20260506083020 | 52 | 285 | 4.0 | 13.0 | 0.00 | 0.00 | 0.00 | 73 | 1004.6 |
| 20260506081518 | 53 | 245 | 4.0 | 13.0 | 0.00 | 0.00 | 0.00 | 70 | 1004.7 |
| 20260506073015 | 54 | 271 | 4.0 | 12.0 | 0.00 | 0.00 | 0.00 | 61 | 1004.6 |
| 20260506071513 | 53 | 262 | 5.0 | 12.0 | 0.00 | 0.00 | 0.00 | 65 | 1004.6 |
| 20260506061601 | 51 | 288 | 6.0 | 15.0 | 0.00 | 0.00 | 0.00 | 73 | 1004.6 |
| 20260506060126 | 51 | 302 | 7.0 | 15.0 | 0.00 | 0.00 | 0.00 | 72 | 1004.6 |
| 20260506044605 | 48 | 280 | 6.0 | 0.0 | 0.00 | 0.00 | 0.00 | 79 | 1004.7 |
| 20260506043053 | 48 | 285 | 6.0 | 0.0 | 0.00 | 0.00 | 0.00 | 78 | 1004.6 |
| 20260506041551 | 0 | 0.0 | 0.0 | 0.00 | 0.00 | 0.00 | 1004.5 | ||
| 20260506040045 | 0 | 0.0 | 0.0 | 0.00 | 0.00 | 0.00 | 1004.6 | ||
| 20260506034541 | 0 | 0.0 | 0.0 | 0.00 | 0.00 | 0.00 | 1004.6 | ||
| 20260506033036 | 0 | 0.0 | 0.0 | 0.00 | 0.00 | 0.00 | 1004.6 | ||
| 20260506031532 | 48 | 288 | 5.0 | 8.0 | 0.00 | 0.00 | 0.00 | 78 | 1004.6 |
| 20260506030034 | 48 | 283 | 4.0 | 15.0 | 0.00 | 0.00 | 0.00 | 80 | 1004.6 |
| 20260506024541 | 48 | 269 | 4.0 | 15.0 | 0.00 | 0.00 | 0.00 | 80 | 1004.9 |
| 20260506023030 | 48 | 269 | 3.0 | 15.0 | 0.00 | 0.00 | 0.00 | 81 | 1004.9 |
| 20260506021526 | 48 | 293 | 5.0 | 15.0 | 0.00 | 0.00 | 0.00 | 82 | 1005.0 |
| 20260506020023 | 48 | 294 | 5.0 | 15.0 | 0.00 | 0.00 | 0.00 | 82 | 1005.2 |
| 20260506014528 | 49 | 286 | 4.0 | 15.0 | 0.00 | 0.00 | 0.00 | 81 | 1004.9 |
| 20260506013022 | 48 | 270 | 2.0 | 15.0 | 0.00 | 0.00 | 0.00 | 82 | 1004.9 |
| 20260506011522 | 48 | 287 | 5.0 | 15.0 | 0.00 | 0.00 | 0.00 | 82 | 1004.9 |
| 20260506010020 | 48 | 300 | 3.0 | 15.0 | 0.00 | 0.00 | 0.00 | 82 | 1004.8 |
| 20260506004518 | 49 | 266 | 3.0 | 15.0 | 0.00 | 0.00 | 0.00 | 81 | 1004.9 |
| 20260506003016 | 49 | 288 | 5.0 | 15.0 | 0.00 | 0.00 | 0.00 | 81 | 1004.9 |
| 20260506001511 | 49 | 280 | 3.0 | 15.0 | 0.00 | 0.00 | 0.00 | 81 | 1004.9 |
| 20260506000011 | 50 | 297 | 4.0 | 15.0 | 0.00 | 0.00 | 0.00 | 81 | 1005.0 |
| 20260505234508 | 50 | 231 | 3.0 | 15.0 | 0.00 | 0.00 | 0.00 | 81 | 1005.2 |
| 20260505233005 | 50 | 290 | 2.0 | 15.0 | 0.00 | 0.00 | 0.00 | 81 | 1005.4 |
| 20260505231504 | 50 | 306 | 3.0 | 15.0 | 0.00 | 0.00 | 0.00 | 81 | 1005.4 |
| 20260505230002 | 50 | 264 | 4.0 | 15.0 | 0.00 | 0.00 | 0.00 | 80 | 1005.4 |
| 20260505224601 | 50 | 257 | 3.0 | 15.0 | 0.00 | 0.00 | 0.00 | 80 | 1005.4 |
| 20260505223059 | 50 | 297 | 6.0 | 15.0 | 0.00 | 0.00 | 0.00 | 77 | 1005.4 |
| 20260505221558 | 51 | 284 | 5.0 | 15.0 | 0.00 | 0.00 | 0.00 | 75 | 1005.4 |
| 20260505220055 | 51 | 304 | 4.0 | 15.0 | 0.00 | 0.00 | 0.00 | 75 | 1005.5 |
| 20260505214554 | 51 | 281 | 5.0 | 15.0 | 0.00 | 0.00 | 0.00 | 74 | 1005.7 |
| 20260505213059 | 51 | 273 | 2.0 | 15.0 | 0.00 | 0.00 | 0.00 | 74 | 1005.7 |
| 20260505211553 | 51 | 278 | 3.0 | 15.0 | 0.00 | 0.00 | 0.00 | 74 | 1005.8 |
| 20260505210054 | 51 | 238 | 4.0 | 15.0 | 0.00 | 0.00 | 0.00 | 73 | 1005.7 |
| 20260505204554 | 51 | 288 | 4.0 | 15.0 | 0.00 | 0.00 | 0.00 | 73 | 1005.6 |
| 20260505203103 | 51 | 269 | 4.0 | 15.0 | 0.00 | 0.00 | 0.00 | 73 | 1005.6 |
| 20260505201549 | 51 | 296 | 7.0 | 18.0 | 0.00 | 0.00 | 0.00 | 71 | 1005.6 |
| 20260505200049 | 51 | 295 | 7.0 | 15.0 | 0.00 | 0.00 | 0.00 | 71 | 1005.5 |
| 20260505194551 | 52 | 245 | 8.0 | 19.0 | 0.00 | 0.00 | 0.00 | 70 | 1005.3 |
| 20260505193048 | 52 | 281 | 9.0 | 19.0 | 0.00 | 0.00 | 0.00 | 69 | 1005.2 |
| 20260505191606 | 52 | 287 | 7.0 | 18.0 | 0.00 | 0.00 | 0.00 | 69 | 1005.1 |
| 20260505190046 | 52 | 300 | 6.0 | 18.0 | 0.00 | 0.00 | 0.00 | 69 | 1005.1 |
| 20260505184546 | 52 | 284 | 7.0 | 18.0 | 0.00 | 0.00 | 0.00 | 70 | 1004.9 |
| 20260505183045 | 52 | 278 | 8.0 | 18.0 | 0.00 | 0.00 | 0.00 | 70 | 1004.7 |
| 20260505181544 | 52 | 273 | 5.0 | 18.0 | 0.00 | 0.00 | 0.00 | 70 | 1004.7 |
| 20260505180058 | 53 | 278 | 6.0 | 18.0 | 0.00 | 0.00 | 0.00 | 69 | 1004.7 |
| 20260505174552 | 53 | 285 | 6.0 | 18.0 | 0.00 | 0.00 | 0.00 | 69 | 1004.9 |
| 20260505173046 | 53 | 278 | 7.0 | 18.0 | 0.00 | 0.00 | 0.00 | 68 | 1004.7 |
| 20260505171544 | 53 | 284 | 5.0 | 18.0 | 0.00 | 0.00 | 0.00 | 68 | 1004.8 |
| 20260505170040 | 53 | 273 | 6.0 | 18.0 | 0.00 | 0.00 | 0.00 | 68 | 1004.9 |
| 20260505164542 | 53 | 294 | 5.0 | 18.0 | 0.00 | 0.00 | 0.00 | 67 | 1005.0 |
| 20260505163039 | 53 | 256 | 5.0 | 18.0 | 0.00 | 0.00 | 0.00 | 67 | 1005.0 |
| 20260505161545 | 53 | 280 | 8.0 | 18.0 | 0.00 | 0.00 | 0.00 | 67 | 1004.9 |
| 20260505153037 | 54 | 266 | 5.0 | 13.0 | 0.00 | 0.00 | 0.00 | 66 | 1004.9 |
| 20260505151537 | 55 | 286 | 7.0 | 11.0 | 0.00 | 0.00 | 0.00 | 65 | 1004.9 |
| 20260505124528 | 55 | 318 | 10.0 | 18.0 | 0.00 | 0.00 | 0.00 | 62 | 1005.2 |
| 20260505123033 | 55 | 288 | 10.0 | 16.0 | 0.00 | 0.00 | 0.00 | 62 | 1005.4 |